Regional Weather Roundup
Issued by NWS Midland/Odessa, TX

Home | Current Version | Previous Version | Text Only | Print | Product List | Glossary On
Versions: 1 2 3 4 5 6 7 8 9 10 11 12 13 14 15 16 17 18 19 20 21 22 23 24 25 26 27 28 29 30 31 32 33 34 35 36 37 38 39 40 41 42 43 44 45 46 47 48 49 50
000
ASUS44 KMAF 200202
RWRMAF
MIDLAND AREA WEATHER ROUNDUP
NATIONAL WEATHER SERVICE MIDLAND TX
900 PM CDT FRI SEP 19 2014

...IN SOUTHWEST TEXAS AND SOUTHEAST NEW MEXICO...

CITY           SKY/WX    TMP DP  RH WIND       PRES   REMARKS
ALPINE         MOCLDY    70  64  83 S8        30.08R
ANDREWS        MOCLDY    71  68  92 E7        29.98R
ARTESIA        NOT AVBL
BIG SPRING     CLOUDY    74  70  87 E7        29.98R
CARLSBAD       RAIN      71  32  23 NE5       29.95S
DRYDEN           N/A     86  67  52 SE9       29.89R
FORT STOCKTON  CLOUDY    74  67  78 E14       29.92S
GUAD PASS      LGT RAIN  66  66 100 NE17        N/A  VSB 1/4
HOBBS          CLOUDY    68  68 100 E5        30.01R FOG
MARFA          PTCLDY    70  64  83 NE9       30.05R
MIDLAND AIRPK  NOT AVBL
MIDLAND INTL   MOCLDY    72  69  90 E8        29.95R
ODESSA         MOCLDY    73  68  84 SE9       29.96R
PECOS          CLOUDY    73  65  78 S6        29.91S
PRESIDIO       MOCLDY    88  63  42 CALM      29.85R
SEMINOLE       CLOUDY    69  69  99 E3        30.00R FOG
SNYDER         CLOUDY    73  69  88 E3        29.97R
WINK           CLOUDY    76  70  82 E13       29.91S
$$
...OTHER STATIONS IN TEXAS...

CITY           SKY/WX    TMP DP  RH WIND       PRES   REMARKS
ABILENE        CLOUDY    77  69  76 SE8       29.94R
AMARILLO       PTCLDY    69  64  84 S10       30.02R
AUSTIN         PTCLDY    75  73  93 CALM      29.89R
BROWNSVILLE    MOCLDY    83  79  88 SE8       29.82R
CORPUS CHRISTI MOCLDY    81  76  84 E10       29.85R
DALLAS FTW     MOCLDY    81  67  62 SE6       29.92R
DEL RIO        PTCLDY    82  71  69 SE6       29.84R
EL PASO        PTCLDY    78  62  57 CALM      29.95R
HOUSTON INT    MOCLDY    76  72  87 SE8       29.90R
LUBBOCK        LGT RAIN  69  67  93 E8        30.00R
SAN ANGELO     CLOUDY    74  70  87 E8        29.94R
SAN ANTONIO    PTCLDY    81  73  76 E12       29.89R
WACO           PTCLDY    78  71  79 SE9       29.91R
WICHITA FALLS  NOT AVBL
$$
...OTHER LOCATIONS IN NEW MEXICO...

CITY           SKY/WX    TMP DP  RH WIND       PRES   REMARKS
ALAMAGORDO     CLEAR     72  66  83 CALM      29.99R
ALBUQUERQUE    PTCLDY    76  56  49 S12       30.03S
CANNON AFB     PTCLDY    66 N/A N/A SE8       30.05R
CLOVIS           N/A     64  63  94 SE8       30.07R
HOLLOMAN AFB   CLEAR     74  65  74 W3        29.97R
ROSWELL        CLOUDY    70  66  87 E3        29.99R
RUIDOSO        LGT RAIN  61  59  94 CALM      30.19S
SANTA FE       PTCLDY    71  54  54 SE10      30.10R
TRUTH OR CONSE CLEAR     75  63  66 SE3       30.01R
TUCUMCARI      CLEAR     71  61  70 S8        30.00R
$$


USA.gov is the U.S. government's official web portal to all federal, state and local government web resources and services.